Meath Environmental Platform

Observations for Trim Market St

Time AQI Temp °C Hum % Pres Pa CO μg/m³ H₂S μg/m³ NO μg/m³ NO₂ μg/m³ O₃ μg/m³ SO₂ μg/m³ PM1 μg/m³ PM2.5 μg/m³ PM10 μg/m³
Sunday 23 August 2026
15:04 2 24 38 65,680 0.09 0 0.95 11.7 74.88 0 0.71 3.51 3.86
15:03 2 24 38 65,676 0 0 0.94 10.94 70.71 0 2.14 5.11 5.62
15:00 2 24 38 65,621 0 0 1.01 10.09 74.3 0 2.14 4.59 5.89
14:54 2 24.1 37 65,657 0 0 0.95 10.04 81.97 0 2.14 5.13 6.7
14:48 2 24.1 37 65,666 0 0 1.39 12.93 72.07 0 4.99 6.73 7.53
14:47 2 24.1 37 65,661 0 0 1.39 13.81 70.62 0 4.28 6.73 8.35
14:46 2 24.1 37 65,653 0.05 0 1.41 27.23 65.58 0 6.41 9.39 12.46
14:45 2 24.1 37 65,643 0 0 1.28 9.85 71.12 0 4.28 6.73 7.53
14:43 2 24.1 37 65,651 0 0 1.09 15.64 69.43 0 3.56 6.73 9.17
14:42 2 24.1 37 65,639 0 0 1 11.55 75.2 0 2.85 5.13 5.64
14:41 2 24.1 37 65,627 0 0 0.97 12.07 70.93 0 3.56 6.19 6.7
14:40 2 24.1 37 65,611 0 0 0.98 11.65 70.69 0 4.28 7.25 8.35
14:38 2 24.1 38 65,590 0 0 0.95 14.16 71.57 0 2.85 6.18 6.71
14:36 2 24 38 65,649 0 0 0.94 14.06 73.53 0 2.85 5.65 5.89
14:33 2 24 38 65,653 0 0 0.92 11.64 75.25 0 1.43 5.12 5.63
14:32 2 23.9 38 65,674 0 0 0.93 13.7 73.16 0 1.43 4.58 5.04
14:30 2 23.9 38 65,666 0 0 0.95 9.82 76.85 0 2.14 4.59 5.04
14:28 2 24 38 65,657 0 0 0.95 9.86 79.45 0 2.85 5.65 5.89
14:18 2 23.9 37 65,659 0 0 0.99 12.26 71.88 0 2.14 4.59 5.06
14:17 2 23.9 37 65,651 0 0 0.99 12.63 79.02 0 2.14 4.06 4.46